EW2235 Weather Reports


Display with metric or nautical units.
time (UTC)temp
F
wind
direction
speed
MPH
gust
MPH
rain 1hr
in
rain 24hr
in
rain mn
in
humidity
%
barometer
mb
20260502170318 51 346 0.0 0.0 0.00 0.02 0.02 90 1016.1
20260502164311 51 310 1.0 5.0 0.00 0.02 0.02 91 1016.3
20260502163821 51 352 1.0 5.0 0.00 0.02 0.02 91 1016.3
20260502163321 51 321 0.0 5.0 0.00 0.02 0.02 91 1016.2
20260502162831 51 43 0.0 4.0 0.00 0.02 0.02 91 1016.3
20260502162331 50 84 0.0 6.0 0.00 0.02 0.02 91 1016.4
20260502161813 51 317 0.0 3.0 0.00 0.02 0.02 91 1016.3
20260502161319 50 347 0.0 5.0 0.00 0.02 0.02 91 1016.3
20260502160821 50 339 0.0 6.0 0.00 0.02 0.02 91 1016.5
20260502160321 50 355 1.0 4.0 0.00 0.02 0.02 91 1016.4
20260502152329 50 335 3.0 7.0 0.00 0.02 0.02 90 1016.3
20260502151839 50 111 0.0 2.0 0.00 0.02 0.02 91 1016.2
20260502151318 50 79 0.0 1.0 0.00 0.02 0.02 90 1016.2
20260502150820 50 14 0.0 3.0 0.00 0.02 0.02 91 1016.3
20260502150327 50 321 0.0 0.0 0.00 0.02 0.02 91 1016.3
20260502130320 49 354 0.0 0.0 0.00 0.02 0.02 91 1016.2
20260502123319 49 1 0.0 1.0 0.00 0.02 0.02 92 1016.1
20260502122829 48 300 0.0 0.0 0.00 0.02 0.02 92 1016.1
20260502122328 48 306 0.0 0.0 0.00 0.02 0.02 93 1016.1
20260502121830 48 306 0.0 0.0 0.00 0.02 0.02 92 1016.1
20260502121337 48 306 0.0 0.0 0.00 0.02 0.02 92 1016.1
20260502120820 48 306 0.0 0.0 0.00 0.02 0.02 92 1016.0
20260502120319 48 306 0.0 0.0 0.00 0.02 0.02 92 1015.9
20260502115829 48 306 0.0 1.0 0.00 0.02 0.02 92 1015.9
20260502115329 48 347 0.0 1.0 0.00 0.02 0.02 92 1015.9
20260502114838 48 302 0.0 1.0 0.00 0.02 0.02 92 1016.0
20260502114318 48 307 0.0 1.0 0.00 0.02 0.02 93 1016.1
20260502113820 48 334 0.0 1.0 0.00 0.02 0.02 93 1016.0
20260502113320 49 326 0.0 0.0 0.00 0.02 0.02 93 1016.1
20260502112829 49 296 0.0 0.0 0.00 0.02 0.02 93 1016.1
20260502112327 49 324 0.0 1.0 0.00 0.02 0.02 93 1016.3
20260502111837 49 340 0.0 1.0 0.00 0.02 0.02 93 1016.3
20260502111316 49 202 0.0 0.0 0.00 0.02 0.02 93 1016.4
20260502110818 49 309 0.0 1.0 0.01 0.02 0.02 93 1016.1
20260502110326 49 3 0.0 1.0 0.01 0.02 0.02 93 1016.0
20260502105829 49 13 0.0 1.0 0.01 0.02 0.02 93 1016.0
20260502105328 49 325 0.0 0.0 0.01 0.02 0.02 93 1016.1
20260502104838 49 71 0.0 0.0 0.01 0.02 0.02 93 1016.0
20260502104314 49 71 0.0 0.0 0.01 0.02 0.02 93 1016.1
20260502103830 49 108 0.0 1.0 0.01 0.02 0.02 92 1016.3
20260502103335 49 83 0.0 1.0 0.01 0.02 0.02 92 1016.2
20260502102817 49 316 0.0 0.0 0.01 0.02 0.02 92 1016.2
20260502102322 49 39 0.0 0.0 0.01 0.02 0.02 92 1016.1
20260502101831 49 233 0.0 1.0 0.01 0.02 0.02 93 1016.1
20260502101336 49 325 0.0 1.0 0.01 0.02 0.02 93 1016.0
20260502100818 49 348 0.0 1.0 0.00 0.01 0.01 93 1016.0
20260502100317 50 352 0.0 0.0 0.00 0.01 0.01 93 1015.8
20260502091342 51 132 0.0 1.0 0.01 0.01 0.01 92 1017.0
20260502090840 51 146 0.0 0.0 0.01 0.01 0.01 92 1017.1
20260502090347 51 146 0.0 0.0 0.01 0.01 0.01 92 1017.3
20260502071323 54 140 0.0 0.0 0.00 0.00 0.00 84 1017.0
20260502070833 54 140 0.0 0.0 0.00 0.00 0.00 84 1016.9
20260502070359 54 140 0.0 0.0 0.00 0.00 0.00 84 1016.9
20260502065841 54 140 0.0 0.0 0.00 0.00 0.00 84 1016.8
20260502065348 54 140 0.0 0.0 0.00 0.00 0.00 84 1016.9
20260502064837 54 140 0.0 0.0 0.00 0.00 0.00 84 1016.9
20260502064351 54 140 0.0 0.0 0.00 0.00 0.00 84 1017.0
20260502063840 54 140 0.0 0.0 0.00 0.00 0.00 83 1017.0
20260502063340 55 140 0.0 0.0 0.00 0.00 0.00 83 1017.0
20260502062313 55 140 0.0 0.0 0.00 0.00 0.00 82 1016.9
20260502061816 55 140 0.0 0.0 0.00 0.00 0.00 81 1016.9
20260502061322 55 314 0.0 0.0 0.00 0.00 0.00 81 1016.8
20260502060825 55 313 0.0 0.0 0.00 0.00 0.00 81 1016.8
20260502060331 56 342 0.0 0.0 0.00 0.00 0.00 80 1016.8
20260502055813 56 342 0.0 0.0 0.00 0.00 0.00 80 1016.8
20260502055313 56 342 0.0 0.0 0.00 0.00 0.00 79 1016.8
20260502054840 56 342 0.0 0.0 0.00 0.00 0.00 79 1016.7
20260502054340 57 342 0.0 0.0 0.00 0.00 0.00 78 1016.6
20260502053849 57 342 0.0 0.0 0.00 0.00 0.00 78 1016.6
20260502053355 57 328 0.0 0.0 0.00 0.00 0.00 77 1016.6
20260502052838 57 321 0.0 1.0 0.00 0.00 0.00 77 1016.6
20260502052344 57 353 0.0 1.0 0.00 0.00 0.00 77 1016.5
20260502051854 58 308 0.0 0.0 0.00 0.00 0.00 76 1016.6
20260502051340 58 333 0.0 0.0 0.00 0.00 0.00 77 1016.6
20260502050849 58 330 0.0 0.0 0.00 0.00 0.00 76 1016.5
20260502050355 58 340 0.0 0.0 0.00 0.00 0.00 75 1016.4
20260502045838 58 313 0.0 0.0 0.00 0.00 0.00 73 1016.4
20260502045344 58 313 0.0 1.0 0.00 0.00 0.00 71 1016.4
20260502044849 59 339 0.0 1.0 0.00 0.00 0.00 71 1016.4
20260502044349 59 335 0.0 0.0 0.00 0.00 0.00 71 1016.4
20260502043838 59 313 0.0 0.0 0.00 0.00 0.00 71 1016.4
20260502043345 59 323 0.0 0.0 0.00 0.00 0.00 71 1016.4
20260502042847 60 323 0.0 3.0 0.00 0.00 0.00 71 1016.3
20260502042334 60 324 0.0 3.0 0.00 0.00 0.00 70 1016.2
20260502041815 60 329 0.0 1.0 0.00 0.00 0.00 71 1016.1
20260502041321 60 304 0.0 2.0 0.00 0.00 0.00 70 1016.1
20260502040823 60 321 0.0 3.0 0.00 0.00 0.00 70 1016.0
20260502040322 61 310 0.0 4.0 0.00 0.00 0.00 70 1016.0
20260502035831 61 304 1.0 4.0 0.00 0.00 0.00 69 1015.9
20260502035330 61 316 0.0 0.0 0.00 0.00 0.00 70 1015.7
20260502034813 62 319 0.0 5.0 0.00 0.00 0.00 69 1015.5
20260502034319 62 309 3.0 5.0 0.00 0.00 0.00 68 1015.5
20260502033822 63 305 0.0 5.0 0.00 0.00 0.00 68 1015.4
20260502033349 63 308 0.0 4.0 0.00 0.00 0.00 67 1015.4
20260502032837 64 347 0.0 5.0 0.00 0.00 0.00 66 1015.3
20260502032343 64 335 0.0 7.0 0.00 0.00 0.00 66 1015.2
20260502031851 65 321 2.0 7.0 0.00 0.00 0.00 68 1015.2
20260502031358 65 322 0.0 5.0 0.00 0.00 0.00 69 1015.2
20260502030840 65 349 1.0 5.0 0.00 0.00 0.00 68 1015.0
20260502030345 66 4 0.0 4.0 0.00 0.00 0.00 67 1015.0
20260502025853 66 9 0.0 4.0 0.00 0.00 0.00 66 1015.1
20260502025359 66 6 0.0 3.0 0.00 0.00 0.00 65 1015.0
20260502024819 67 338 0.0 1.0 0.00 0.00 0.00 65 1014.9
20260502024319 67 17 0.0 0.0 0.00 0.00 0.00 63 1014.8
20260502023822 67 81 0.0 3.0 0.00 0.00 0.00 63 1014.7
20260502023327 68 82 0.0 3.0 0.00 0.00 0.00 62 1014.7
20260502022830 68 85 1.0 3.0 0.00 0.00 0.00 61 1014.6
20260502022336 68 160 0.0 1.0 0.00 0.00 0.00 61 1014.6
20260502021324 69 176 0.0 4.0 0.00 0.00 0.00 62 1014.5
20260502020833 69 176 0.0 4.0 0.00 0.00 0.00 63 1014.5
20260502020313 70 129 0.0 2.0 0.00 0.00 0.00 62 1014.5
20260502015315 70 134 0.0 1.0 0.00 0.00 0.00 61 1014.4
20260502014812 70 134 0.0 1.0 0.00 0.00 0.00 60 1014.4
20260502014331 70 135 0.0 1.0 0.00 0.00 0.00 60 1014.4
20260502013813 70 69 0.0 5.0 0.00 0.00 0.00 60 1014.4
20260502013321 70 108 1.0 6.0 0.00 0.00 0.00 59 1014.4
20260502012822 71 129 3.0 5.0 0.00 0.00 0.00 58 1014.4
20260502012329 71 122 1.0 5.0 0.00 0.00 0.00 58 1014.4
20260502011831 71 120 0.0 3.0 0.00 0.00 0.00 57 1014.4
20260502011330 71 100 1.0 3.0 0.00 0.00 0.00 57 1014.4
20260502010813 72 70 0.0 2.0 0.00 0.00 0.00 56 1014.3
20260502010319 72 76 0.0 4.0 0.00 0.00 0.00 52 1014.3
20260502005822 73 210 0.0 1.0 0.00 0.00 0.00 53 1014.3
20260502005325 73 345 0.0 0.0 0.00 0.00 0.00 51 1014.3
20260502004828 73 34 0.0 0.0 0.00 0.00 0.00 50 1014.4
20260502004334 72 299 0.0 5.0 0.00 0.00 0.00 49 1014.4
20260502003817 73 321 0.0 5.0 0.00 0.00 0.00 49 1014.4
20260502003313 73 154 0.0 0.0 0.00 0.00 0.00 50 1014.4
20260502002815 73 353 0.0 0.0 0.00 0.00 0.00 50 1014.5
20260502002322 72 143 0.0 1.0 0.00 0.00 0.00 54 1014.4
20260502001825 71 229 0.0 5.0 0.00 0.00 0.00 54 1014.4
20260502001331 72 146 2.0 5.0 0.00 0.00 0.00 53 1014.4
20260502000814 72 121 1.0 4.0 0.00 0.00 0.00 53 1014.4
20260502000341 72 121 0.0 4.0 0.00 0.00 0.00 55 1014.4
20260501235842 72 11 0.0 4.0 0.00 0.00 0.00 55 1014.4
20260501235348 71 82 1.0 6.0 0.00 0.00 0.00 54 1014.4
20260501234857 71 94 2.0 6.0 0.00 0.00 0.00 55 1014.5
20260501234336 72 136 1.0 3.0 0.00 0.00 0.00 52 1014.5
20260501233845 72 166 0.0 4.0 0.00 0.00 0.00 50 1014.5
20260501233344 72 304 0.0 4.0 0.00 0.00 0.00 49 1014.5
20260501232853 73 275 0.0 3.0 0.00 0.00 0.00 49 1014.5
20260501232339 73 316 1.0 4.0 0.00 0.00 0.00 49 1014.5
20260501231849 73 101 1.0 4.0 0.00 0.00 0.00 47 1014.6
20260501231326 73 119 0.0 1.0 0.00 0.00 0.00 48 1014.7
20260501230828 73 215 0.0 1.0 0.00 0.00 0.00 50 1014.7
20260501230335 72 221 0.0 2.0 0.00 0.00 0.00 52 1014.8
20260501225817 72 126 0.0 4.0 0.00 0.00 0.00 53 1014.9
20260501225316 71 351 0.0 5.0 0.00 0.00 0.00 52 1014.9
20260501224825 72 321 0.0 3.0 0.00 0.00 0.00 51 1015.0
20260501224412 72 159 0.0 3.0 0.00 0.00 0.00 51 1015.0
20260501223829 72 323 0.0 3.0 0.00 0.00 0.00 53 1015.1
20260501223336 72 53 0.0 5.0 0.00 0.00 0.00 53 1015.1
20260501222818 73 56 2.0 5.0 0.00 0.00 0.00 51 1015.2
20260501222324 73 76 0.0 0.0 0.00 0.00 0.00 52 1015.2
20260501221834 73 332 0.0 1.0 0.00 0.00 0.00 50 1015.3
20260501221313 73 179 0.0 1.0 0.00 0.00 0.00 50 1015.3
20260501220814 72 305 0.0 0.0 0.00 0.00 0.00 53 1015.3
20260501220314 70 185 0.0 4.0 0.00 0.00 0.00 56 1015.4
20260501215823 70 359 2.0 4.0 0.00 0.00 0.00 54 1015.5
20260501215323 71 358 1.0 5.0 0.00 0.00 0.00 54 1015.5
20260501214832 70 340 0.0 5.0 0.00 0.00 0.00 56 1015.6
20260501214312 71 304 0.0 4.0 0.00 0.00 0.00 55 1015.6
20260501213822 72 333 0.0 3.0 0.00 0.00 0.00 52 1015.6
20260501213328 72 82 0.0 4.0 0.00 0.00 0.00 53 1015.7
20260501212831 71 11 0.0 2.0 0.00 0.00 0.00 55 1015.8
20260501212330 70 65 0.0 2.0 0.00 0.00 0.00 55 1016.0
20260501211820 70 344 0.0 3.0 0.00 0.00 0.00 57 1016.0
20260501211326 69 1 0.0 3.0 0.00 0.00 0.00 57 1016.1
20260501210829 70 330 0.0 1.0 0.00 0.00 0.00 57 1016.1
20260501210335 70 311 0.0 5.0 0.00 0.00 0.00 57 1016.1
20260501205817 70 153 2.0 6.0 0.00 0.00 0.00 56 1016.2
20260501205323 69 172 1.0 6.0 0.00 0.00 0.00 58 1016.3
20260501204814 68 49 0.0 1.0 0.00 0.00 0.00 59 1016.4
20260501204320 70 50 0.0 4.0 0.00 0.00 0.00 57 1016.4
20260501203822 69 149 1.0 4.0 0.00 0.00 0.00 58 1016.4
20260501203322 68 236 0.0 2.0 0.00 0.00 0.00 59 1016.4
20260501202831 68 186 0.0 3.0 0.00 0.00 0.00 60 1016.5
20260501201814 69 308 1.0 6.0 0.00 0.00 0.00 58 1016.5
20260501201320 68 312 0.0 5.0 0.00 0.00 0.00 59 1016.6
20260501200822 68 311 1.0 5.0 0.00 0.00 0.00 59 1016.7
20260501200329 68 266 0.0 5.0 0.00 0.00 0.00 59 1016.6
20260501195831 67 195 1.0 5.0 0.00 0.00 0.00 62 1016.7
20260501195330 66 326 0.0 5.0 0.00 0.00 0.00 62 1016.8
20260501194820 66 309 0.0 4.0 0.00 0.00 0.00 62 1016.8
20260501194319 66 4 0.0 0.0 0.00 0.00 0.00 63 1016.8
20260501193822 66 205 0.0 1.0 0.00 0.00 0.00 64 1016.7
20260501193328 66 297 0.0 1.0 0.00 0.00 0.00 63 1016.7
20260501192831 66 300 0.0 1.0 0.00 0.00 0.00 62 1016.7
20260501192337 65 310 0.0 5.0 0.00 0.00 0.00 64 1016.7
20260501191819 64 247 1.0 5.0 0.00 0.00 0.00 65 1016.8
20260501191319 64 338 1.0 3.0 0.00 0.00 0.00 65 1016.8
20260501190829 64 158 0.0 4.0 0.00 0.00 0.00 66 1016.8
20260501185831 63 21 0.0 3.0 0.00 0.00 0.00 68 1017.0
20260501185338 63 316 0.0 3.0 0.00 0.00 0.00 67 1017.0
20260501184821 62 5 0.0 5.0 0.00 0.00 0.00 69 1017.1
20260501184319 63 346 1.0 5.0 0.00 0.00 0.00 68 1017.0
20260501183829 63 190 1.0 5.0 0.00 0.00 0.00 69 1017.1
20260501183312 62 326 2.0 5.0 0.00 0.00 0.00 70 1017.1
20260501182815 62 340 0.0 3.0 0.00 0.00 0.00 69 1017.2
20260501182321 63 259 0.0 6.0 0.00 0.00 0.00 69 1017.1
20260501181824 64 284 1.0 6.0 0.00 0.00 0.00 67 1017.1
20260501181323 64 232 0.0 0.0 0.00 0.00 0.00 66 1017.1
20260501180812 64 314 0.0 3.0 0.00 0.00 0.00 69 1017.2
20260501180329 63 195 0.0 5.0 0.00 0.00 0.00 71 1017.2
20260501175838 61 127 1.0 5.0 0.00 0.00 0.00 73 1017.2
20260501175318 61 315 0.0 4.0 0.00 0.00 0.00 71 1017.2
20260501174333 61 160 2.0 6.0 0.00 0.00 0.00 72 1017.3
20260501173815 61 176 1.0 3.0 0.00 0.00 0.00 73 1017.2
20260501173313 61 312 0.0 5.0 0.00 0.00 0.00 74 1017.2
20260501172815 60 146 0.0 5.0 0.00 0.00 0.00 74 1017.2
20260501172322 61 101 2.0 5.0 0.00 0.00 0.00 72 1017.2
20260501171824 61 130 1.0 3.0 0.00 0.00 0.00 72 1017.2
20260501171337 61 198 0.0 1.0 0.00 0.00 0.00 74 1017.2